Regional Weather Roundup
Issued by NWS

Home | Current Version | Previous Version | Graphics & Text | Print | Product List | Glossary On
Versions: 1 2 3 4 5 6 7 8 9 10 11 12 13 14 15 16 17 18 19 20 21 22 23 24 25 26 27 28 29 30 31 32 33 34 35 36 37 38 39 40 41 42 43 44 45 46 47 48 49 50
000
ASUS43 KOAX 260802
RWRNE

WEATHER ROUNDUP FOR NEBRASKA
NATIONAL WEATHER SERVICE OMAHA NE
300 AM CDT SUN APR 26 2015

NOTES: SATELLITE DATA IS BEING USED TO AUGMENT CLOUD COVER ABOVE
       12000 FEET.
       "FAIR" INDICATES FEW OR NO CLOUDS BELOW 12,000 FEET WITH NO
       SIGNIFICANT WEATHER AND/OR OBSTRUCTIONS TO VISIBILITY.

  * THESE STATIONS DO NOT REPORT WEATHER SUCH AS RAIN...SNOW OR FOG.

NEZ001>004-019>022-054>056-260900-
NEBRASKA PANHANDLE

CITY           SKY/WX    TMP DP  RH WIND       PRES   REMARKS
SCOTTSBLUFF    LGT RAIN  49  32  52 E15       29.77F
ALLIANCE       CLOUDY    49  47  93 SE9       29.82F
CHADRON        CLOUDY    48  47  96 NE12      29.85F FOG
KIMBALL        LGT RAIN  45  44  98 E15G21    29.80F
SIDNEY         RAIN      48  44  86 E8        29.84F FOG
$$

NEZ057>060-069>072-079>082-260900-
SOUTHWEST NEBRASKA

CITY           SKY/WX    TMP DP  RH WIND       PRES   REMARKS
IMPERIAL       LGT RAIN  46  44  93 E8        29.88R FOG
MCCOOK         CLOUDY    47  45  93 E15       29.85S FOG
$$

NEZ005>010-023>029-035>040-094-260900-
NORTH CENTRAL NEBRASKA

CITY           SKY/WX    TMP DP  RH WIND       PRES   REMARKS
VALENTINE      CLOUDY    49  42  77 SE17      29.91R
AINSWORTH      CLOUDY    46  44  91 S9        29.92R
BROKEN BOW     CLOUDY    48  43  82 SE12G24   29.89S
ORD            CLOUDY    44  39  82 E7        29.91R
$$

NEZ041-046>049-061>064-073>077-083>087-260900-
SOUTH CENTRAL NEBRASKA

CITY           SKY/WX    TMP DP  RH WIND       PRES   REMARKS
GRAND ISLAND   CLOUDY    47  42  83 E12       29.91S
AURORA         CLOUDY    47  46  97 E12       29.90F
HASTINGS       CLOUDY    47  44  90 E10       29.89F
KEARNEY *      CLOUDY    46  43  87 E15       29.89F
YORK           MOCLDY    46  45  93 NE10      29.91S
$$

NEZ011>018-030>034-042>045-260900-
NORTHEAST NEBRASKA

CITY           SKY/WX    TMP DP  RH WIND       PRES   REMARKS
NORFOLK        CLEAR     42  39  89 E5        29.94S
ALBION         CLEAR     41  38  87 E7        29.93S
BLAIR          CLOUDY    47  41  81 NE7       29.93R
COLUMBUS *     CLOUDY    46  39  76 NE8       29.94S
TEKAMAH        MOCLDY    46  42  86 N7        29.95R
$$

NEZ050>053-065>068-078-088>093-260900-
SOUTHEAST NEBRASKA

CITY           SKY/WX    TMP DP  RH WIND       PRES   REMARKS
LINCOLN        CLOUDY    49  43  80 NE9       29.92S
OMAHA EPPLEY   PTCLDY    46  41  82 NE6       29.94R
BEATRICE       CLOUDY    47  46  97 E7        29.89S FOG
FALLS CITY     CLOUDY    48  44  86 NE9       29.88S
NEBRASKA CITY  CLOUDY    47  41  79 NE12      29.90S
PLATTSMOUTH    MOCLDY    45  40  85 NE7       29.92R
$$

NEZ044-045-051>053-067-260900-
OMAHA AREA

CITY           SKY/WX    TMP DP  RH WIND       PRES   REMARKS
OMAHA EPPLEY   PTCLDY    46  41  82 NE6       29.94R
BLAIR          CLOUDY    47  41  81 NE7       29.93R
OFFUTT AFB     CLOUDY    44  40  86 NE7       29.92S
PLATTSMOUTH    MOCLDY    45  40  85 NE7       29.92R
WAHOO          CLOUDY    48  42  79 E8        29.93R
$$


USA.gov is the U.S. government's official web portal to all federal, state and local government web resources and services.